Theta_e
317 312 305 306 318 318 321 326 324 322 329 328 325 335 337 345 349 351 347 348 350 355 355 353 352 352 354 354 355 353 351 352
312 310 312 315 318 321 322 325 328 327 323 331 336 337 342 348 350 348 346 347 352 354 353 351 348 349 350 349 348 348 346 349
306 312 317 319 319 323 320 322 324 325 322 324 334 343 344 345 347 345 343 346 347 351 349 348 346 346 347 348 345 343 342 344
305 310 318 318 320 322 322 324 325 324 323 324 337 338 338 341 343 345 344 344 340 347 349 348 347 347 346 345 343 340 339 338
308 311 312 317 322 322 322 323 324 328 321 325 330 336 335 338 340 343 343 339 336 336 341 347 348 348 346 344 341 338 337 334
312 310 312 320 320 324 325 324 332 331 319 320 328 334 336 337 337 338 338 337 331 330 332 334 337 348 345 340 336 334 333 331
309 312 314 320 322 328 331 327 328 329 328 331 330 333 328 329 333 333 332 331 331 330 327 329 333 334 338 338 333 329 325 326
314 318 319 325 324 326 326 324 324 326 331 333 328 325 322 323 324 323 325 326 325 326 325 327 331 324 323 324 319 316 314 313
320 323 326 323 319 324 324 320 324 323 327 330 327 322 321 321 322 322 324 326 326 326 325 325 324 321 321 321 317 315 313 311
318 324 322 320 320 322 323 324 331 330 331 330 327 322 320 320 321 323 325 325 326 326 325 324 324 320 318 318 315 312 311 310
322 322 322 322 319 320 321 330 332 332 331 330 328 324 321 322 323 324 323 324 325 327 325 322 321 319 316 314 312 310 309 309
319 320 322 322 321 322 324 331 330 331 329 327 321 322 323 324 323 323 323 323 324 323 319 318 318 317 313 312 309 308 307 307
317 316 318 322 317 319 325 328 325 321 321 322 323 324 323 324 323 323 321 321 319 319 318 314 314 314 312 312 310 307 307 307
313 316 317 317 310 320 325 324 321 317 319 321 323 324 325 325 324 322 319 318 317 318 316 312 311 312 311 310 308 307 306 306
312 316 316 313 314 320 324 323 320 316 318 321 322 323 326 327 324 321 319 317 315 314 313 310 310 310 309 308 307 305 305 305
305 312 315 313 311 318 322 322 321 316 316 320 321 323 325 325 323 321 319 317 314 313 311 309 308 308 307 307 306 305 305 305
309 316 313 311 311 314 321 320 319 315 315 319 320 324 324 323 322 321 319 316 312 310 309 310 307 306 306 304 303 303 304 305
311 315 311 310 310 313 317 319 319 318 316 318 320 322 322 321 321 319 318 315 313 310 308 309 309 307 307 305 304 304 304 304
307 312 312 310 307 312 316 322 321 320 318 320 320 320 320 320 320 319 317 315 313 309 308 308 306 306 305 303 302 300 301 302
306 307 301 310 297 302 310 317 319 320 318 319 321 321 320 319 319 318 317 316 314 309 307 307 306 303 302 300 298 300 300 302
Wind_Speed
5 3 4 3 5 3 3 4 3 6 6 6 9 10 5 11 12 11 6 6 11 17 17 18 18 18 17 17 17 17 15 13
6 2 4 5 7 3 3 7 10 11 7 5 8 5 8 13 15 10 6 6 14 17 17 17 19 19 18 17 18 18 18 16
3 3 5 7 4 7 5 5 11 4 8 5 7 18 16 15 13 14 7 6 9 16 18 18 18 18 17 18 20 21 22 24
4 7 12 2 5 7 10 14 14 12 10 3 17 19 14 13 12 12 11 6 7 15 16 16 16 16 16 16 18 20 21 23
4 2 2 5 5 8 14 15 7 11 10 5 9 14 15 12 12 11 8 7 5 5 12 16 14 15 15 17 18 19 20 21
4 5 3 6 5 7 18 9 15 16 8 8 7 20 16 12 12 11 8 7 6 5 4 6 6 14 15 17 18 18 19 20
8 12 7 6 7 4 6 16 7 3 14 12 19 19 15 12 9 9 7 6 5 4 3 4 5 8 12 18 18 18 15 18
8 9 15 16 18 10 8 9 10 16 10 19 20 18 16 14 11 8 8 6 5 6 6 4 6 4 6 10 7 6 7 7
11 9 19 13 5 3 17 8 18 22 18 16 17 16 16 14 15 12 8 6 7 7 7 7 4 3 3 5 5 6 8 6
8 9 8 12 9 9 1 8 16 18 19 16 15 12 15 12 10 11 11 8 7 7 7 6 3 4 4 6 5 5 5 6
10 11 10 10 7 8 6 17 15 15 15 15 15 9 8 9 9 11 9 7 7 7 6 5 6 4 5 7 6 4 5 6
7 6 8 13 9 7 9 16 15 16 16 9 15 15 14 13 10 8 8 7 7 7 6 7 4 5 5 7 5 5 4 4
8 5 4 10 3 9 15 16 13 11 14 17 16 19 17 15 13 12 8 7 9 8 6 7 6 6 5 7 6 4 4 6
2 1 2 3 5 3 13 15 11 16 16 18 13 16 14 12 13 11 11 10 9 7 7 7 7 5 6 5 5 4 4 4
0 4 3 4 3 9 9 14 13 18 16 16 15 13 13 13 13 12 11 10 9 8 7 6 7 6 6 6 5 4 3 4
5 5 5 5 8 4 9 14 13 14 15 16 18 16 15 16 14 12 10 9 8 6 6 5 5 5 4 5 4 4 4 3
1 3 4 9 14 9 12 8 6 11 13 14 14 13 14 14 15 15 11 8 7 6 4 4 4 4 4 4 2 2 3 0
3 10 6 4 14 8 14 13 12 14 14 17 10 13 13 13 14 12 12 8 6 6 5 4 3 2 3 3 0 2 1 2
10 4 2 3 10 5 6 10 14 13 15 16 23 19 15 14 12 12 12 10 6 6 6 5 6 4 3 3 2 2 2 3
8 7 7 10 7 6 6 17 19 13 11 16 17 15 14 15 15 13 10 9 7 6 6 6 7 5 5 2 2 1 2 2
Wind_Direction
72 74 107 180 240 180 180 152 78 90 39 71 102 95 124 124 123 104 104 105 100 96 92 87 81 76 72 68 63 57 52 50
43 331 244 200 218 232 179 66 85 125 66 58 78 104 137 130 117 122 113 103 104 101 96 89 83 77 71 65 59 51 43 35
92 266 263 206 230 181 191 89 107 97 110 77 75 129 140 135 141 126 123 118 110 108 102 96 90 82 72 63 56 49 42 37
114 242 246 96 169 187 113 110 103 102 99 103 128 138 147 141 144 124 127 130 117 117 112 109 104 96 86 75 65 52 42 37
181 281 129 189 209 198 126 131 133 151 111 162 134 152 141 136 126 125 123 120 119 127 122 117 105 97 85 74 60 49 43 39
202 178 224 238 186 154 147 146 134 140 156 171 125 147 130 128 124 128 133 134 139 109 101 102 110 102 90 79 69 59 50 43
165 159 181 168 125 123 124 135 191 227 136 145 130 128 122 124 134 132 124 110 113 123 77 80 110 73 84 85 78 71 56 51
223 156 152 151 129 132 122 131 108 112 120 131 136 135 133 137 135 121 116 122 114 96 114 124 77 92 85 86 76 69 64 51
130 155 146 144 115 115 125 140 157 152 155 154 145 145 140 140 143 149 143 119 100 96 86 84 95 81 69 94 82 65 55 48
162 152 125 147 134 130 157 172 162 157 159 161 160 155 149 150 145 137 118 110 102 98 90 80 82 79 80 95 83 74 55 61
119 144 137 130 138 153 145 151 167 160 167 175 168 159 128 118 117 111 111 105 88 92 91 77 68 80 74 88 83 75 64 61
69 145 144 127 143 113 154 163 173 168 178 156 124 121 109 103 104 105 110 100 84 74 72 63 68 95 98 101 97 79 68 73
34 338 97 103 60 149 156 165 175 134 140 128 128 120 125 131 124 117 103 106 93 72 52 54 68 89 91 103 93 81 70 58
291 340 200 174 214 188 161 159 167 137 139 133 143 138 144 139 126 118 106 92 77 67 54 49 72 87 90 101 98 90 77 67
326 139 111 41 126 174 181 167 174 154 154 144 140 146 147 137 125 121 119 112 92 69 69 75 77 84 92 102 96 100 91 70
167 191 162 155 209 219 209 185 184 164 158 153 153 154 143 129 120 109 94 90 90 86 80 84 92 88 76 81 70 66 67 70
88 201 155 243 266 187 198 206 180 172 168 163 160 148 136 126 117 111 105 90 77 82 69 76 62 89 88 100 106 60 67 38
346 253 160 349 266 178 202 180 173 189 185 163 146 145 140 133 128 119 120 117 100 96 73 80 78 71 110 144 177 118 284 318
211 235 63 59 313 202 161 171 182 198 185 164 160 157 154 146 134 127 126 130 122 115 94 85 83 73 69 58 49 37 340 322
208 126 218 136 258 294 192 187 188 182 163 167 166 158 152 147 139 138 141 131 142 129 110 90 92 86 98 133 90 250 253 283